,,,PA_Meas_PMT16A,,PR_Meas_QMR101_102,,RH_Meas_QMH101,,SR_Meas_QMS101,,TA_Meas_QMH101,,GenWind,,GenWind,
date,time,status,PA,status,PR,status,RH,status,SR,status,TA,status,DirAvg,status,SpdAvg,
2008-05-25, 00:00:05,VALID,1004.27,VALID,0,VALID,95.2008,VALID,0,VALID,24.0345,VALID,66,VALID,0.390625,
2008-05-25, 00:01:05,VALID,1004.26,VALID,0,VALID,95.1398,VALID,0,VALID,24.0557,VALID,66,VALID,0.348437,
2008-05-25, 00:02:05,VALID,1004.26,VALID,0,VALID,95.0787,VALID,0,VALID,24.0752,VALID,64,VALID,0.420312,
2008-05-25, 00:03:05,VALID,1004.27,VALID,0,VALID,95.0177,VALID,0,VALID,24.0539,VALID,65,VALID,0.512891,
2008-05-25, 00:04:05,VALID,1004.26,VALID,0,VALID,94.9872,VALID,0,VALID,24.0539,VALID,46,VALID,0.444141,
2008-05-25, 00:05:05,VALID,1004.21,VALID,0,VALID,94.8651,VALID,0,VALID,24.0363,VALID,46,VALID,0.0398437,
2008-05-25, 00:06:05,VALID,1004.23,VALID,0,VALID,94.7049,VALID,0,VALID,24.0168,VALID,46,VALID,0,
2008-05-25, 00:07:05,VALID,1004.21,VALID,0,VALID,94.682,VALID,0,VALID,23.9584,VALID,46,VALID,0,
2008-05-25, 00:08:05,VALID,1004.2,VALID,0,VALID,94.6363,VALID,0,VALID,23.9177,VALID,46,VALID,0,
2008-05-25, 00:09:05,VALID,1004.19,VALID,0,VALID,94.6439,VALID,0,VALID,23.8982,VALID,46,VALID,0,
2008-05-25, 00:10:05,VALID,1004.24,VALID,0,VALID,94.7202,VALID,0,VALID,23.8982,VALID,46,VALID,0.0242187,
2008-05-25, 00:11:05,VALID,1004.26,VALID,0,VALID,94.766,VALID,0,VALID,23.8805,VALID,46,VALID,0.290625,
2008-05-25, 00:12:05,VALID,1004.26,VALID,0,VALID,94.888,VALID,0,VALID,23.8982,VALID,47,VALID,0.3625,
2008-05-25, 00:13:05,VALID,1004.26,VALID,0,VALID,94.9567,VALID,0,VALID,23.8982,VALID,47,VALID,0,
2008-05-25, 00:14:05,VALID,1004.25,VALID,0,VALID,94.9262,VALID,0,VALID,23.9,VALID,48,VALID,0.267188,
2008-05-25, 00:15:05,VALID,1004.27,VALID,0,VALID,94.9643,VALID,0,VALID,23.8787,VALID,48,VALID,0.221875,
2008-05-25, 00:16:04,VALID,1004.25,VALID,0,VALID,94.9796,VALID,0,VALID,23.9195,VALID,48,VALID,0.0894531,
2008-05-25, 00:17:04,VALID,1004.22,VALID,0,VALID,95.0101,VALID,0,VALID,23.9195,VALID,53,VALID,0.421484,
2008-05-25, 00:18:04,VALID,1004.23,VALID,0,VALID,95.094,VALID,0,VALID,23.9389,VALID,57,VALID,0.527344,
2008-05-25, 00:19:04,VALID,1004.23,VALID,0,VALID,95.1169,VALID,0,VALID,23.9584,VALID,61,VALID,0.251172,
2008-05-25, 00:20:04,VALID,1004.23,VALID,0,VALID,95.2237,VALID,0,VALID,23.9992,VALID,69,VALID,0.380078,
2008-05-25, 00:21:04,VALID,1004.26,VALID,0,VALID,95.2771,VALID,0,VALID,24.015,VALID,78,VALID,0.440234,
2008-05-25, 00:22:04,VALID,1004.28,VALID,0,VALID,95.2923,VALID,0,VALID,24.0539,VALID,72,VALID,0.265234,
2008-05-25, 00:23:04,VALID,1004.28,VALID,0,VALID,95.1627,VALID,0,VALID,24.0539,VALID,72,VALID,0.239844,
2008-05-25, 00:24:04,VALID,1004.29,VALID,0,VALID,95.0711,VALID,0,VALID,24.0345,VALID,72,VALID,0.238672,
2008-05-25, 00:25:04,VALID,1004.31,VALID,0,VALID,95.0558,VALID,0,VALID,24.0168,VALID,64,VALID,0.462109,
2008-05-25, 00:26:04,VALID,1004.32,VALID,0,VALID,95.033,VALID,0,VALID,23.9955,VALID,64,VALID,0.276563,
2008-05-25, 00:27:04,VALID,1004.33,VALID,0,VALID,95.0406,VALID,0,VALID,23.9955,VALID,64,VALID,0.334766,
2008-05-25, 00:28:04,VALID,1004.32,VALID,0,VALID,94.9643,VALID,0,VALID,23.9973,VALID,53,VALID,0.466016,
2008-05-25, 00:29:04,VALID,1004.29,VALID,0,VALID,94.9643,VALID,0,VALID,23.9779,VALID,46,VALID,0.125781,
2008-05-25, 00:30:04,VALID,1004.29,VALID,0,VALID,94.9109,VALID,0,VALID,23.9584,VALID,46,VALID,0.0523437,
2008-05-25, 00:31:04,VALID,1004.28,VALID,0,VALID,94.8956,VALID,0,VALID,23.9177,VALID,46,VALID,0.128125,
2008-05-25, 00:32:04,VALID,1004.28,VALID,0,VALID,94.9033,VALID,0,VALID,23.9195,VALID,46,VALID,0,
2008-05-25, 00:33:04,VALID,1004.24,VALID,0,VALID,94.9033,VALID,0,VALID,23.9,VALID,46,VALID,0,
2008-05-25, 00:34:04,VALID,1004.24,VALID,0,VALID,94.9109,VALID,0,VALID,23.8805,VALID,46,VALID,0,
2008-05-25, 00:35:04,VALID,1004.22,VALID,0,VALID,94.9262,VALID,0,VALID,23.8593,VALID,46,VALID,0,
2008-05-25, 00:36:04,VALID,1004.23,VALID,0,VALID,94.9948,VALID,0,VALID,23.8805,VALID,46,VALID,0,
2008-05-25, 00:37:04,VALID,1004.21,VALID,0,VALID,95.1093,VALID,0,VALID,23.9,VALID,46,VALID,0,
2008-05-25, 00:38:04,VALID,1004.2,VALID,0,VALID,95.1627,VALID,0,VALID,23.8982,VALID,46,VALID,0.318359,
2008-05-25, 00:39:04,VALID,1004.18,VALID,0,VALID,95.1855,VALID,0,VALID,23.9195,VALID,46,VALID,0.193359,
2008-05-25, 00:40:04,VALID,1004.19,VALID,0,VALID,95.2389,VALID,0,VALID,23.9389,VALID,46,VALID,0.312109,
2008-05-25, 00:41:04,VALID,1004.18,VALID,0,VALID,95.1855,VALID,0,VALID,23.9584,VALID,47,VALID,0.2,
2008-05-25, 00:42:04,VALID,1004.18,VALID,0,VALID,95.2008,VALID,0,VALID,23.9584,VALID,66,VALID,0.225781,
2008-05-25, 00:43:04,VALID,1004.19,VALID,0,VALID,95.2008,VALID,0,VALID,23.9584,VALID,68,VALID,0.384375,
2008-05-25, 00:44:04,VALID,1004.18,VALID,0,VALID,95.2389,VALID,0,VALID,23.9566,VALID,68,VALID,0,
2008-05-25, 00:45:04,VALID,1004.18,VALID,0,VALID,95.2542,VALID,0,VALID,23.9761,VALID,68,VALID,0.0726563,
2008-05-25, 00:46:04,VALID,1004.2,VALID,0,VALID,95.3381,VALID,0,VALID,24.0363,VALID,68,VALID,0.570703,
2008-05-25, 00:47:04,VALID,1004.17,VALID,0,VALID,95.3381,VALID,0.100563,VALID,24.0752,VALID,68,VALID,0.502344,
2008-05-25, 00:48:04,VALID,1004.18,VALID,0,VALID,95.3915,VALID,0,VALID,24.0947,VALID,70,VALID,0.348437,
2008-05-25, 00:49:04,VALID,1004.13,VALID,0,VALID,95.3763,VALID,0.100563,VALID,24.1123,VALID,70,VALID,0,
2008-05-25, 00:50:04,VALID,1004.12,VALID,0,VALID,95.2923,VALID,0.100563,VALID,24.1318,VALID,70,VALID,0,
2008-05-25, 00:51:04,VALID,1004.09,VALID,0,VALID,95.2237,VALID,0.100563,VALID,24.1123,VALID,70,VALID,0,
2008-05-25, 00:52:04,VALID,1004.09,VALID,0,VALID,95.1779,VALID,0,VALID,24.1123,VALID,70,VALID,0,
2008-05-25, 00:53:04,VALID,1004.03,VALID,0,VALID,95.1398,VALID,0.100563,VALID,24.1336,VALID,70,VALID,0.0773437,
2008-05-25, 00:54:04,VALID,1004.04,VALID,0,VALID,95.1398,VALID,0,VALID,24.1142,VALID,70,VALID,0,
2008-05-25, 00:55:04,VALID,1004.02,VALID,0,VALID,95.1321,VALID,0,VALID,24.0734,VALID,70,VALID,0,
2008-05-25, 00:56:04,VALID,1004.01,VALID,0,VALID,95.0635,VALID,0,VALID,24.0752,VALID,70,VALID,0,
2008-05-25, 00:57:04,VALID,1004.01,VALID,0,VALID,95.094,VALID,0.100563,VALID,24.0539,VALID,70,VALID,0,
2008-05-25, 00:58:04,VALID,1004.01,VALID,0,VALID,95.0864,VALID,0.100563,VALID,24.0345,VALID,70,VALID,0,
2008-05-25, 00:59:04,VALID,1004.01,VALID,0,VALID,94.9719,VALID,0.100563,VALID,24.0168,VALID,70,VALID,0,
2008-05-25, 01:00:04,VALID,1004.01,VALID,0,VALID,94.9262,VALID,0,VALID,23.9761,VALID,70,VALID,0,
2008-05-25, 01:01:04,VALID,1004.03,VALID,0,VALID,94.9796,VALID,0,VALID,23.9779,VALID,70,VALID,0,
2008-05-25, 01:02:04,VALID,1004.03,VALID,0,VALID,95.0406,VALID,0,VALID,23.9566,VALID,70,VALID,0,
2008-05-25, 01:03:04,VALID,1004.04,VALID,0,VALID,95.1016,VALID,0,VALID,23.9779,VALID,70,VALID,0,
2008-05-25, 01:04:04,VALID,1004.05,VALID,0,VALID,95.1855,VALID,0.100563,VALID,23.9973,VALID,69,VALID,0,
2008-05-25, 01:05:04,VALID,1004.06,VALID,0,VALID,95.1245,VALID,0.100563,VALID,23.9779,VALID,69,VALID,0,
2008-05-25, 01:06:04,VALID,1004.07,VALID,0,VALID,95.1627,VALID,0,VALID,23.9761,VALID,69,VALID,0,
2008-05-25, 01:07:04,VALID,1004.04,VALID,0,VALID,95.1321,VALID,0,VALID,23.9566,VALID,69,VALID,0,
2008-05-25, 01:08:04,VALID,1004.06,VALID,0,VALID,95.094,VALID,0.100563,VALID,23.9371,VALID,69,VALID,0,
2008-05-25, 01:09:04,VALID,1004.05,VALID,0,VALID,95.0482,VALID,0.100563,VALID,23.9371,VALID,69,VALID,0,
2008-05-25, 01:10:04,VALID,1004.03,VALID,0,VALID,95.033,VALID,0.100563,VALID,23.9389,VALID,69,VALID,0,
2008-05-25, 01:11:04,VALID,1004.04,VALID,0,VALID,95.0482,VALID,0,VALID,23.9195,VALID,69,VALID,0.103906,
2008-05-25, 01:12:04,VALID,1004.03,VALID,0,VALID,95.0635,VALID,0.100563,VALID,23.9,VALID,69,VALID,0,
2008-05-25, 01:13:04,VALID,1004.03,VALID,0,VALID,95.0558,VALID,0.100563,VALID,23.8805,VALID,69,VALID,0,
2008-05-25, 01:14:04,VALID,1004.03,VALID,0,VALID,95.0635,VALID,0,VALID,23.8611,VALID,69,VALID,0,
2008-05-25, 01:15:04,VALID,1004,VALID,0,VALID,95.0787,VALID,0.100563,VALID,23.8398,VALID,69,VALID,0,
2008-05-25, 01:16:04,VALID,1004.01,VALID,0,VALID,95.1321,VALID,0,VALID,23.8398,VALID,69,VALID,0,
2008-05-25, 01:17:04,VALID,1003.99,VALID,0,VALID,95.1627,VALID,0,VALID,23.8611,VALID,69,VALID,0,
2008-05-25, 01:18:04,VALID,1003.98,VALID,0,VALID,95.1474,VALID,0.100563,VALID,23.8203,VALID,69,VALID,0,
2008-05-25, 01:19:04,VALID,1003.98,VALID,0,VALID,95.1855,VALID,0,VALID,23.8009,VALID,69,VALID,0,
2008-05-25, 01:20:04,VALID,1003.98,VALID,0,VALID,95.2389,VALID,0,VALID,23.8221,VALID,69,VALID,0,
2008-05-25, 01:21:04,VALID,1003.98,VALID,0,VALID,95.2695,VALID,0,VALID,23.8221,VALID,69,VALID,0,
2008-05-25, 01:22:04,VALID,1003.98,VALID,0,VALID,95.3,VALID,0,VALID,23.8221,VALID,69,VALID,0,
2008-05-25, 01:23:04,VALID,1003.99,VALID,0,VALID,95.2771,VALID,0,VALID,23.8221,VALID,68,VALID,0,
2008-05-25, 01:24:04,VALID,1003.97,VALID,0,VALID,95.2618,VALID,0.100563,VALID,23.8221,VALID,68,VALID,0,
2008-05-25, 01:25:04,VALID,1003.96,VALID,0,VALID,95.2847,VALID,0,VALID,23.8027,VALID,68,VALID,0,
2008-05-25, 01:26:04,VALID,1003.97,VALID,0,VALID,95.3076,VALID,0,VALID,23.8027,VALID,68,VALID,0,
2008-05-25, 01:27:04,VALID,1003.96,VALID,0,VALID,95.2923,VALID,0,VALID,23.8027,VALID,68,VALID,0,
2008-05-25, 01:28:04,VALID,1003.96,VALID,0,VALID,95.3152,VALID,0,VALID,23.7601,VALID,68,VALID,0,
2008-05-25, 01:29:04,VALID,1003.94,VALID,0,VALID,95.3686,VALID,0,VALID,23.7814,VALID,68,VALID,0,
2008-05-25, 01:30:04,VALID,1003.93,VALID,0,VALID,95.4373,VALID,0,VALID,23.7814,VALID,68,VALID,0,
2008-05-25, 01:31:04,VALID,1003.9,VALID,0,VALID,95.422,VALID,0,VALID,23.7814,VALID,68,VALID,0,
2008-05-25, 01:32:04,VALID,1003.9,VALID,0,VALID,95.4449,VALID,0,VALID,23.8009,VALID,68,VALID,0,
2008-05-25, 01:33:04,VALID,1003.88,VALID,0,VALID,95.4297,VALID,0.100563,VALID,23.8027,VALID,68,VALID,0,
2008-05-25, 01:34:04,VALID,1003.87,VALID,0,VALID,95.4297,VALID,0.100563,VALID,23.7814,VALID,68,VALID,0,
2008-05-25, 01:35:04,VALID,1003.86,VALID,0,VALID,95.4602,VALID,0,VALID,23.7832,VALID,68,VALID,0,
2008-05-25, 01:36:04,VALID,1003.84,VALID,0,VALID,95.4526,VALID,0.100563,VALID,23.7814,VALID,68,VALID,0,
2008-05-25, 01:37:04,VALID,1003.82,VALID,0,VALID,95.4831,VALID,0.100563,VALID,23.7814,VALID,68,VALID,0,
2008-05-25, 01:38:04,VALID,1003.77,VALID,0,VALID,95.4831,VALID,0.100563,VALID,23.7832,VALID,68,VALID,0,
2008-05-25, 01:39:04,VALID,1003.78,VALID,0,VALID,95.506,VALID,0,VALID,23.8027,VALID,68,VALID,0,
2008-05-25, 01:40:04,VALID,1003.7,VALID,0,VALID,95.5822,VALID,0.100563,VALID,23.8416,VALID,68,VALID,0,
2008-05-25, 01:41:04,VALID,1003.7,VALID,0,VALID,95.628,VALID,0.100563,VALID,23.8416,VALID,68,VALID,0,
2008-05-25, 01:42:04,VALID,1003.66,VALID,0,VALID,95.6433,VALID,0,VALID,23.8611,VALID,68,VALID,0.419922,
2008-05-25, 01:43:04,VALID,1003.65,VALID,0,VALID,95.6051,VALID,0,VALID,23.8398,VALID,60,VALID,0.530859,
2008-05-25, 01:44:04,VALID,1003.64,VALID,0,VALID,95.6585,VALID,0.100563,VALID,23.8805,VALID,44,VALID,0.552734,
2008-05-25, 01:45:04,VALID,1003.62,VALID,0,VALID,95.6509,VALID,0,VALID,23.8593,VALID,40,VALID,0.573047,
2008-05-25, 01:46:04,VALID,1003.64,VALID,0,VALID,95.6662,VALID,0,VALID,23.8805,VALID,37,VALID,0.3625,
2008-05-25, 01:47:04,VALID,1003.64,VALID,0,VALID,95.6204,VALID,0,VALID,23.8787,VALID,37,VALID,0.355859,
2008-05-25, 01:48:04,VALID,1003.65,VALID,0,VALID,95.5365,VALID,0,VALID,23.8611,VALID,37,VALID,0.21875,
2008-05-25, 01:49:04,VALID,1003.61,VALID,0,VALID,95.4907,VALID,0,VALID,23.8221,VALID,37,VALID,0.175781,
2008-05-25, 01:50:04,VALID,1003.6,VALID,0,VALID,95.4678,VALID,0,VALID,23.7814,VALID,37,VALID,0.0105469,
2008-05-25, 01:51:04,VALID,1003.61,VALID,0,VALID,95.4678,VALID,0,VALID,23.8027,VALID,37,VALID,0.0734375,
2008-05-25, 01:52:04,VALID,1003.58,VALID,0,VALID,95.4831,VALID,0,VALID,23.7425,VALID,37,VALID,0,
2008-05-25, 01:53:04,VALID,1003.56,VALID,0,VALID,95.506,VALID,0.100563,VALID,23.7425,VALID,37,VALID,0,
2008-05-25, 01:54:04,VALID,1003.55,VALID,0,VALID,95.5365,VALID,0,VALID,23.7619,VALID,37,VALID,0,
2008-05-25, 01:55:04,VALID,1003.52,VALID,0,VALID,95.567,VALID,0.100563,VALID,23.7619,VALID,37,VALID,0,
2008-05-25, 01:56:04,VALID,1003.51,VALID,0,VALID,95.5594,VALID,0,VALID,23.7619,VALID,37,VALID,0,
2008-05-25, 01:57:04,VALID,1003.52,VALID,0,VALID,95.567,VALID,0,VALID,23.7425,VALID,37,VALID,0,
2008-05-25, 01:58:04,VALID,1003.52,VALID,0,VALID,95.5517,VALID,0.100563,VALID,23.7619,VALID,37,VALID,0,
2008-05-25, 01:59:04,VALID,1003.53,VALID,0,VALID,95.5517,VALID,0.100563,VALID,23.8045,VALID,37,VALID,0,
2008-05-25, 02:00:04,VALID,1003.53,VALID,0,VALID,95.5746,VALID,0.100563,VALID,23.7637,VALID,37,VALID,0,
2008-05-25, 02:01:04,VALID,1003.49,VALID,0,VALID,95.5899,VALID,0,VALID,23.7637,VALID,37,VALID,0,
2008-05-25, 02:02:04,VALID,1003.49,VALID,0,VALID,95.6585,VALID,0,VALID,23.7619,VALID,37,VALID,0,
2008-05-25, 02:03:04,VALID,1003.45,VALID,0,VALID,95.7043,VALID,0,VALID,23.7832,VALID,37,VALID,0,
2008-05-25, 02:04:04,VALID,1003.44,VALID,0,VALID,95.6662,VALID,0,VALID,23.7832,VALID,37,VALID,0,
2008-05-25, 02:05:04,VALID,1003.42,VALID,0,VALID,95.7196,VALID,0,VALID,23.8027,VALID,37,VALID,0,
2008-05-25, 02:06:04,VALID,1003.43,VALID,0,VALID,95.7119,VALID,0,VALID,23.8221,VALID,37,VALID,0,
2008-05-25, 02:07:04,VALID,1003.4,VALID,0,VALID,95.7272,VALID,0.100563,VALID,23.8009,VALID,37,VALID,0,
2008-05-25, 02:08:04,VALID,1003.41,VALID,0,VALID,95.6814,VALID,0,VALID,23.8009,VALID,37,VALID,0,
2008-05-25, 02:09:04,VALID,1003.41,VALID,0,VALID,95.6585,VALID,0,VALID,23.7814,VALID,37,VALID,0,
2008-05-25, 02:10:04,VALID,1003.45,VALID,0,VALID,95.6509,VALID,0.100563,VALID,23.8009,VALID,37,VALID,0,
2008-05-25, 02:11:04,VALID,1003.45,VALID,0,VALID,95.6662,VALID,0,VALID,23.8027,VALID,37,VALID,0,
2008-05-25, 02:12:04,VALID,1003.45,VALID,0,VALID,95.6662,VALID,0,VALID,23.8221,VALID,37,VALID,0,
2008-05-25, 02:13:04,VALID,1003.42,VALID,0,VALID,95.6204,VALID,0,VALID,23.8027,VALID,37,VALID,0,
2008-05-25, 02:14:04,VALID,1003.44,VALID,0,VALID,95.6128,VALID,0.100563,VALID,23.7814,VALID,37,VALID,0,
2008-05-25, 02:15:04,VALID,1003.47,VALID,0,VALID,95.6051,VALID,0,VALID,23.7637,VALID,37,VALID,0,
2008-05-25, 02:16:04,VALID,1003.42,VALID,0,VALID,95.6585,VALID,0.100563,VALID,23.7814,VALID,41,VALID,0,
2008-05-25, 02:17:04,VALID,1003.43,VALID,0,VALID,95.6356,VALID,0,VALID,23.7832,VALID,41,VALID,0,
2008-05-25, 02:18:04,VALID,1003.4,VALID,0,VALID,95.6433,VALID,0.100563,VALID,23.7619,VALID,41,VALID,0,
2008-05-25, 02:19:04,VALID,1003.4,VALID,0,VALID,95.6738,VALID,0.100563,VALID,23.7814,VALID,41,VALID,0,
2008-05-25, 02:20:04,VALID,1003.37,VALID,0,VALID,95.6738,VALID,0,VALID,23.7814,VALID,41,VALID,0,
2008-05-25, 02:21:04,VALID,1003.36,VALID,0,VALID,95.6433,VALID,0,VALID,23.7619,VALID,41,VALID,0,
2008-05-25, 02:22:04,VALID,1003.37,VALID,0,VALID,95.5822,VALID,0.100563,VALID,23.7619,VALID,41,VALID,0,
2008-05-25, 02:23:04,VALID,1003.38,VALID,0,VALID,95.5594,VALID,0.100563,VALID,23.7425,VALID,41,VALID,0,
2008-05-25, 02:24:04,VALID,1003.37,VALID,0,VALID,95.6051,VALID,0.100563,VALID,23.723,VALID,41,VALID,0,
2008-05-25, 02:25:04,VALID,1003.36,VALID,0,VALID,95.6051,VALID,0,VALID,23.7425,VALID,41,VALID,0,
2008-05-25, 02:26:04,VALID,1003.34,VALID,0,VALID,95.5822,VALID,0.100563,VALID,23.7248,VALID,41,VALID,0,
2008-05-25, 02:27:04,VALID,1003.31,VALID,0,VALID,95.6051,VALID,0,VALID,23.7443,VALID,40,VALID,0,
2008-05-25, 02:28:04,VALID,1003.3,VALID,0,VALID,95.7196,VALID,0,VALID,23.7655,VALID,38,VALID,0,
2008-05-25, 02:29:04,VALID,1003.28,VALID,0,VALID,95.6814,VALID,0.100563,VALID,23.7425,VALID,38,VALID,0,
2008-05-25, 02:30:04,VALID,1003.26,VALID,0,VALID,95.5441,VALID,0,VALID,23.7248,VALID,37,VALID,0,
2008-05-25, 02:31:04,VALID,1003.25,VALID,0,VALID,95.5136,VALID,0,VALID,23.6841,VALID,36,VALID,0,
2008-05-25, 02:32:04,VALID,1003.25,VALID,0,VALID,95.6128,VALID,0.100563,VALID,23.7035,VALID,36,VALID,0,
2008-05-25, 02:33:04,VALID,1003.22,VALID,0,VALID,95.6967,VALID,0,VALID,23.7035,VALID,36,VALID,0,
2008-05-25, 02:34:04,VALID,1003.25,VALID,0,VALID,95.5288,VALID,0,VALID,23.6841,VALID,36,VALID,0,
2008-05-25, 02:35:04,VALID,1003.26,VALID,0,VALID,95.4983,VALID,0,VALID,23.6664,VALID,36,VALID,0,
2008-05-25, 02:36:04,VALID,1003.24,VALID,0,VALID,95.5365,VALID,0,VALID,23.6664,VALID,36,VALID,0,
2008-05-25, 02:37:04,VALID,1003.25,VALID,0,VALID,95.773,VALID,0,VALID,23.6841,VALID,36,VALID,0,
2008-05-25, 02:38:04,VALID,1003.26,VALID,0,VALID,95.7577,VALID,0.100563,VALID,23.723,VALID,36,VALID,0,
2008-05-25, 02:39:04,VALID,1003.25,VALID,0,VALID,95.6356,VALID,0,VALID,23.7443,VALID,36,VALID,0,
2008-05-25, 02:40:04,VALID,1003.26,VALID,0,VALID,95.628,VALID,0.100563,VALID,23.7035,VALID,36,VALID,0,
2008-05-25, 02:41:04,VALID,1003.23,VALID,0,VALID,95.6509,VALID,0,VALID,23.7248,VALID,36,VALID,0,
2008-05-25, 02:42:04,VALID,1003.25,VALID,0,VALID,95.6051,VALID,0,VALID,23.6841,VALID,36,VALID,0,
2008-05-25, 02:43:04,VALID,1003.23,VALID,0,VALID,95.4983,VALID,0.100563,VALID,23.6646,VALID,36,VALID,0,
2008-05-25, 02:44:04,VALID,1003.24,VALID,0,VALID,95.4678,VALID,0.100563,VALID,23.6257,VALID,36,VALID,0,
2008-05-25, 02:45:04,VALID,1003.26,VALID,0,VALID,95.3763,VALID,0,VALID,23.608,VALID,36,VALID,0,
2008-05-25, 02:46:04,VALID,1003.26,VALID,0,VALID,95.2923,VALID,0,VALID,23.5496,VALID,35,VALID,0,
2008-05-25, 02:47:04,VALID,1003.26,VALID,0,VALID,95.361,VALID,0,VALID,23.4894,VALID,17,VALID,0.369141,
2008-05-25, 02:48:04,VALID,1003.25,VALID,0,VALID,95.4373,VALID,0,VALID,23.5107,VALID,10,VALID,0.603516,
2008-05-25, 02:49:04,VALID,1003.25,VALID,0,VALID,95.6509,VALID,0,VALID,23.5089,VALID,5,VALID,0.403906,
2008-05-25, 02:50:04,VALID,1003.24,VALID,0,VALID,95.8035,VALID,0,VALID,23.5673,VALID,5,VALID,0.334766,
2008-05-25, 02:51:04,VALID,1003.26,VALID,0,VALID,95.8493,VALID,0.100563,VALID,23.6062,VALID,5,VALID,0.256641,
2008-05-25, 02:52:04,VALID,1003.26,VALID,0,VALID,95.773,VALID,0,VALID,23.608,VALID,5,VALID,0.192969,
2008-05-25, 02:53:04,VALID,1003.24,VALID,0,VALID,95.7043,VALID,0,VALID,23.608,VALID,5,VALID,0.120703,
2008-05-25, 02:54:04,VALID,1003.29,VALID,0,VALID,95.6509,VALID,0.100563,VALID,23.5673,VALID,5,VALID,0.289844,
2008-05-25, 02:55:04,VALID,1003.32,VALID,0,VALID,95.5899,VALID,0,VALID,23.5284,VALID,5,VALID,0.279687,
2008-05-25, 02:56:04,VALID,1003.32,VALID,0,VALID,95.5517,VALID,0,VALID,23.5302,VALID,5,VALID,0.139453,
2008-05-25, 02:57:04,VALID,1003.33,VALID,0,VALID,95.5441,VALID,0,VALID,23.5107,VALID,5,VALID,0,
2008-05-25, 02:58:04,VALID,1003.36,VALID,0,VALID,95.5899,VALID,0,VALID,23.4505,VALID,5,VALID,0.316016,
2008-05-25, 02:59:04,VALID,1003.35,VALID,0,VALID,95.6204,VALID,0.100563,VALID,23.4894,VALID,5,VALID,0.308594,
2008-05-25, 03:00:04,VALID,1003.37,VALID,0,VALID,95.5594,VALID,0,VALID,23.4505,VALID,5,VALID,0.342578,
2008-05-25, 03:01:04,VALID,1003.35,VALID,0,VALID,95.5441,VALID,0,VALID,23.4116,VALID,5,VALID,0.391406,
2008-05-25, 03:02:04,VALID,1003.33,VALID,0,VALID,95.7424,VALID,0,VALID,23.4328,VALID,4,VALID,0.373047,
2008-05-25, 03:03:04,VALID,1003.35,VALID,0,VALID,95.9561,VALID,0,VALID,23.4894,VALID,1,VALID,0.519922,
2008-05-25, 03:04:04,VALID,1003.37,VALID,0,VALID,96.0095,VALID,0.100563,VALID,23.5478,VALID,360,VALID,0.404687,
2008-05-25, 03:05:04,VALID,1003.41,VALID,0,VALID,95.9179,VALID,0,VALID,23.5478,VALID,360,VALID,0.442187,
2008-05-25, 03:06:04,VALID,1003.4,VALID,0,VALID,95.7653,VALID,0,VALID,23.5478,VALID,360,VALID,0.300781,
2008-05-25, 03:07:04,VALID,1003.43,VALID,0,VALID,95.7882,VALID,0,VALID,23.5284,VALID,360,VALID,0.260547,
2008-05-25, 03:08:04,VALID,1003.43,VALID,0,VALID,95.7882,VALID,0,VALID,23.5496,VALID,360,VALID,0,
2008-05-25, 03:09:04,VALID,1003.41,VALID,0,VALID,95.7806,VALID,0,VALID,23.5089,VALID,360,VALID,0,
2008-05-25, 03:10:04,VALID,1003.46,VALID,0,VALID,95.8035,VALID,0,VALID,23.5089,VALID,360,VALID,0,
2008-05-25, 03:11:04,VALID,1003.41,VALID,0,VALID,95.7348,VALID,0,VALID,23.5089,VALID,360,VALID,0,
2008-05-25, 03:12:04,VALID,1003.42,VALID,0,VALID,95.7043,VALID,0,VALID,23.4894,VALID,360,VALID,0,
2008-05-25, 03:13:04,VALID,1003.44,VALID,0,VALID,95.6585,VALID,0,VALID,23.4505,VALID,360,VALID,0,
2008-05-25, 03:14:04,VALID,1003.43,VALID,0,VALID,95.7119,VALID,0,VALID,23.4505,VALID,360,VALID,0,
2008-05-25, 03:15:04,VALID,1003.44,VALID,0,VALID,95.7196,VALID,0,VALID,23.4311,VALID,360,VALID,0,
2008-05-25, 03:16:04,VALID,1003.43,VALID,0,VALID,95.689,VALID,0,VALID,23.4116,VALID,360,VALID,0,
2008-05-25, 03:17:04,VALID,1003.46,VALID,0,VALID,95.7806,VALID,0,VALID,23.4116,VALID,360,VALID,0,
2008-05-25, 03:18:04,VALID,1003.47,VALID,0,VALID,95.8721,VALID,0.100563,VALID,23.4311,VALID,360,VALID,0,
2008-05-25, 03:19:04,VALID,1003.44,VALID,0,VALID,96.0018,VALID,0.100563,VALID,23.47,VALID,360,VALID,0,
2008-05-25, 03:20:04,VALID,1003.44,VALID,0,VALID,96.0171,VALID,0,VALID,23.5089,VALID,360,VALID,0,
2008-05-25, 03:21:04,VALID,1003.43,VALID,0,VALID,95.9484,VALID,0,VALID,23.5089,VALID,360,VALID,0,
2008-05-25, 03:22:04,VALID,1003.41,VALID,0,VALID,95.8798,VALID,0,VALID,23.5089,VALID,360,VALID,0.217187,
2008-05-25, 03:23:04,VALID,1003.39,VALID,0,VALID,95.8416,VALID,0,VALID,23.4894,VALID,360,VALID,0.273438,
2008-05-25, 03:24:04,VALID,1003.38,VALID,0,VALID,95.8187,VALID,0,VALID,23.4894,VALID,360,VALID,0.254687,
2008-05-25, 03:25:04,VALID,1003.33,VALID,0,VALID,95.773,VALID,0.100563,VALID,23.47,VALID,360,VALID,0.256641,
2008-05-25, 03:26:04,VALID,1003.32,VALID,0,VALID,95.7119,VALID,0,VALID,23.4311,VALID,360,VALID,0.30625,
2008-05-25, 03:27:04,VALID,1003.29,VALID,0,VALID,95.6967,VALID,0,VALID,23.4134,VALID,360,VALID,0.280859,
2008-05-25, 03:28:04,VALID,1003.28,VALID,0,VALID,95.6967,VALID,0,VALID,23.3727,VALID,360,VALID,0.248047,
2008-05-25, 03:29:04,VALID,1003.27,VALID,0,VALID,95.7348,VALID,0,VALID,23.3337,VALID,360,VALID,0.189453,
2008-05-25, 03:30:04,VALID,1003.25,VALID,0,VALID,95.7653,VALID,0,VALID,23.3337,VALID,360,VALID,0.281641,
2008-05-25, 03:31:04,VALID,1003.24,VALID,0,VALID,95.8645,VALID,0.100563,VALID,23.3727,VALID,360,VALID,0.239453,
2008-05-25, 03:32:04,VALID,1003.23,VALID,0,VALID,95.8721,VALID,0,VALID,23.3532,VALID,360,VALID,0.0539063,
2008-05-25, 03:33:04,VALID,1003.26,VALID,0,VALID,95.8493,VALID,0,VALID,23.3744,VALID,360,VALID,0,
2008-05-25, 03:34:04,VALID,1003.3,VALID,0,VALID,95.8645,VALID,0.100563,VALID,23.3744,VALID,360,VALID,0.456641,
2008-05-25, 03:35:04,VALID,1003.31,VALID,0,VALID,95.9027,VALID,0,VALID,23.3744,VALID,360,VALID,0.477734,
2008-05-25, 03:36:04,VALID,1003.33,VALID,0,VALID,95.8874,VALID,0,VALID,23.3532,VALID,360,VALID,0.374609,
2008-05-25, 03:37:04,VALID,1003.33,VALID,0,VALID,95.895,VALID,0.100563,VALID,23.3532,VALID,360,VALID,0.421875,
2008-05-25, 03:38:04,VALID,1003.36,VALID,0,VALID,95.9637,VALID,0,VALID,23.3939,VALID,360,VALID,0.373828,
2008-05-25, 03:39:04,VALID,1003.33,VALID,0,VALID,95.9866,VALID,0.100563,VALID,23.3921,VALID,360,VALID,0.333594,
2008-05-25, 03:40:04,VALID,1003.35,VALID,0,VALID,95.9637,VALID,0.100563,VALID,23.3921,VALID,360,VALID,0.323828,
2008-05-25, 03:41:04,VALID,1003.36,VALID,0,VALID,95.9027,VALID,0.100563,VALID,23.3727,VALID,360,VALID,0.366016,
2008-05-25, 03:42:04,VALID,1003.34,VALID,0,VALID,95.895,VALID,0.100563,VALID,23.3532,VALID,360,VALID,0.446484,
2008-05-25, 03:43:04,VALID,1003.34,VALID,0,VALID,95.8493,VALID,0.100563,VALID,23.3337,VALID,360,VALID,0.319922,
2008-05-25, 03:44:04,VALID,1003.34,VALID,0,VALID,95.7882,VALID,0.100563,VALID,23.3355,VALID,360,VALID,0.435937,
2008-05-25, 03:45:04,VALID,1003.35,VALID,0,VALID,95.7959,VALID,0.100563,VALID,23.2754,VALID,360,VALID,0.352734,
2008-05-25, 03:46:04,VALID,1003.36,VALID,0,VALID,95.8493,VALID,0.100563,VALID,23.2754,VALID,360,VALID,0.160938,
2008-05-25, 03:47:04,VALID,1003.35,VALID,0,VALID,96.0247,VALID,0,VALID,23.2948,VALID,360,VALID,0,
2008-05-25, 03:48:04,VALID,1003.39,VALID,0,VALID,96.04,VALID,0,VALID,23.3143,VALID,360,VALID,0,
2008-05-25, 03:49:04,VALID,1003.36,VALID,0,VALID,96.101,VALID,0.100563,VALID,23.3532,VALID,360,VALID,0,
2008-05-25, 03:50:04,VALID,1003.36,VALID,0,VALID,96.0934,VALID,0,VALID,23.3939,VALID,360,VALID,0,